Regional Weather Roundup
Issued by NWS

Home | Current Version | Previous Version | Graphics & Text | Print | Product List | Glossary On
Versions: 1 2 3 4 5 6 7 8 9 10 11 12 13 14 15 16 17 18 19 20 21 22 23 24 25 26 27 28 29 30 31 32 33 34 35 36 37 38 39 40 41 42 43 44 45 46 47 48 49 50
000
ASUS45 KCYS 282310
RWRWY

WYOMING REGIONAL WEATHER ROUNDUP
NATIONAL WEATHER SERVICE CHEYENNE WY
400 PM MST SUN DEC 28 2014

NOTE:  "FAIR" INDICATES FEW OR NO CLOUDS BELOW 12,000 FEET
WITH NO SIGNIFICANT WEATHER AND/OR OBSTRUCTIONS TO VISIBILITY.

WYZ001-290000-
YELLOWSTONE NATIONAL PARK

CITY           SKY/WX    TMP DP  RH WIND       PRES   REMARKS
LK YELLOWSTONE   N/A     15   9  76 W7        29.84S WCI   5
W YELLOWSTONE  NOT AVBL

$$
WYZ002>013-054>058-071-098>099-290000-
NORTHERN WYOMING

CITY           SKY/WX    TMP DP  RH WIND       PRES   REMARKS
JACKSON        NOT AVBL
CODY           CLOUDY    18  12  79 CALM      29.90R
GREYBULL       CLOUDY    14  10  84 NW5       29.96R WCI   6
WORLAND        CLOUDY    12   5  73 S5        29.94R WCI   4
SHERIDAN       FLURRIES  24  16  71 CALM      29.94R
BUFFALO        LGT SNOW  24  18  77 N8        29.89R WCI  15
GILLETTE       CLOUDY    24  16  71 NE6       29.89R WCI  17
HULETT           N/A    N/A N/A N/A MISG        N/A
NEWCASTLE      CLOUDY    23  18  80 NW5       29.91R WCI  17

$$
WYZ014>020-022>026-101>103-290000-
CENTRAL WYOMING

CITY           SKY/WX    TMP DP  RH WIND       PRES   REMARKS
BIG PINEY      FAIR      12   6  77 N6        29.88R WCI   3
PINEDALE       FAIR       9   5  85 W12       29.87S WCI  -6
DUBOIS         NOT AVBL
LANDER         CLOUDY    16   7  67 N5        29.85R WCI   9
RIVERTON       CLOUDY    15   8  73 NE3       29.88R
CASPER         FAIR      23  13  65 W8        29.84R WCI  14
DOUGLAS        FAIR      25  15  66 NW6       29.87R WCI  18

$$
WYZ021-027>030-104>119-290000-
SOUTHERN WYOMING

CITY           SKY/WX    TMP DP  RH WIND       PRES   REMARKS
EVANSTON       FLURRIES  20  15  81 SW16      29.91S WCI   6
FORT BRIDGER   CLOUDY    24  16  71 W15       29.93R WCI  11
ROCK SPRINGS   FAIR      19  12  74 W18       29.88R WCI   4
DIXON          FLURRIES  22  18  82 S15G22    29.92F WCI   9
RAWLINS        LGT SNOW  20  15  81 SW17      29.82S WCI   5
SARATOGA       MOCLDY    21  14  73 SW15      29.84R WCI   8
LARAMIE        MOCLDY    19   9  65 W13       29.80R WCI   6
CHEYENNE       FAIR      28  10  46 W12       29.82S WCI  18
TORRINGTON     FAIR      29  17  61 W7        29.87R WCI  22
PINE BLUFFS    MOCLDY    27  14  59 CALM      29.86S

$$



USA.gov is the U.S. government's official web portal to all federal, state and local government web resources and services.